{"data":{"norad_id":64035,"epoch":"2026-09-20T13:42:58.811328Z","epoch_age_seconds":137361,"freshness":"FRESH","line1":"1 64035U 25102P   26263.57151402  .00006709  00000+0  23755-3 0  9998","line2":"2 64035  70.0000 340.5757 0003104 269.4318  90.6502 15.29589785 74988","mean_motion":15.29589785,"eccentricity":0.0003104,"inclination_deg":70,"raan_deg":340.5757,"arg_perigee_deg":269.4318,"mean_anomaly_deg":90.6502,"bstar":0.00023755,"rev_number":7498,"period_min":94.142888120817,"perigee_km":474.90982089551,"apogee_km":479.16551332885,"semimajor_km":6855.1746671122,"source":"CELESTRAK","updated_at":"2026-09-21T09:00:35.188486Z"}}